Location: Leipzig
(51.3397°N, 12.3731°E)
Time: 19:09:05
(UTC+01:00)

ISS - Pass Details

Date: 17 October 2025
Orbit: 414 x 421 km, 51.6° (Epoch: 07 November)

Event Time Altitude Azimuth Distance (km) Brightness Sun altitude
Exits shadow 06:17:29 - 202° (SSW) 2,172 -0.4 -13.3°
Reaches altitude 10° 06:19:33 10° 185° (S) 1,497 -1.0 -12.9°
Maximum altitude 06:21:50 17° 142° (SE) 1,136 -1.1 -12.6°
Drops below altitude 10° 06:24:09 10° 99° (E) 1,507 0.5 -12.2°
Sets 06:26:44 0° 78° (ENE) 2,377 1.9 -11.8°
